| time (UTC) | temp F | wind direction | speed knots | gust knots | rain 1hr in | rain 24hr in | rain mn in | humidity % | barometer mb |
| 20260506222616 | 58 | 180 | 0.0 | 1.7 | 0.00 | 0.00 | 0.00 | 72 | 1011.2 |
| 20260506222116 | 58 | 225 | 0.9 | 1.7 | 0.00 | 0.00 | 0.00 | 72 | 1011.2 |
| 20260506221616 | 58 | 315 | 0.9 | 1.7 | 0.00 | 0.00 | 0.00 | 72 | 1011.3 |
| 20260506221117 | 58 | 315 | 0.0 | 0.0 | 0.00 | 0.00 | 0.00 | 72 | 1011.1 |
| 20260506220616 | 58 | 225 | 0.0 | 0.0 | 0.00 | 0.00 | 0.00 | 72 | 1011.2 |
| 20260506220116 | 58 | 315 | 0.0 | 1.7 | 0.00 | 0.00 | 0.00 | 73 | 1011.2 |
| 20260506215616 | 58 | 225 | 0.9 | 1.7 | 0.00 | 0.00 | 0.00 | 73 | 1011.2 |
| 20260506215116 | 58 | 270 | 0.0 | 1.7 | 0.00 | 0.00 | 0.00 | 73 | 1011.1 |
| 20260506214616 | 57 | 270 | 0.9 | 1.7 | 0.00 | 0.00 | 0.00 | 73 | 1011.0 |
| 20260506214117 | 57 | 270 | 0.0 | 0.0 | 0.00 | 0.00 | 0.00 | 73 | 1011.1 |
| 20260506213616 | 57 | 270 | 0.0 | 0.0 | 0.00 | 0.00 | 0.00 | 73 | 1011.1 |
| 20260506213116 | 57 | 270 | 0.0 | 1.7 | 0.00 | 0.00 | 0.00 | 73 | 1011.2 |
| 20260506212616 | 57 | 225 | 0.9 | 1.7 | 0.00 | 0.00 | 0.00 | 73 | 1011.1 |
| 20260506212116 | 57 | 225 | 0.0 | 0.9 | 0.00 | 0.00 | 0.00 | 73 | 1011.0 |
| 20260506211616 | 57 | 225 | 0.0 | 1.7 | 0.00 | 0.00 | 0.00 | 72 | 1011.0 |
| 20260506211116 | 57 | 225 | 0.9 | 1.7 | 0.00 | 0.00 | 0.00 | 72 | 1010.9 |
| 20260506210616 | 57 | 225 | 0.0 | 0.9 | 0.00 | 0.00 | 0.00 | 72 | 1010.9 |
| 20260506210116 | 58 | 270 | 0.0 | 1.7 | 0.00 | 0.00 | 0.00 | 71 | 1010.9 |
| 20260506205616 | 58 | 293 | 0.0 | 1.7 | 0.00 | 0.00 | 0.00 | 71 | 1010.8 |
| 20260506205116 | 58 | 270 | 0.0 | 1.7 | 0.00 | 0.00 | 0.00 | 70 | 1010.7 |
| 20260506204616 | 59 | 315 | 0.9 | 1.7 | 0.00 | 0.00 | 0.00 | 70 | 1010.8 |
| 20260506204116 | 59 | 315 | 0.9 | 1.7 | 0.00 | 0.00 | 0.00 | 70 | 1010.8 |
| 20260506203616 | 60 | 225 | 0.9 | 1.7 | 0.00 | 0.00 | 0.00 | 70 | 1010.8 |
| 20260506203116 | 60 | 270 | 0.0 | 1.7 | 0.00 | 0.00 | 0.00 | 69 | 1010.8 |
| 20260506202616 | 60 | 180 | 0.9 | 2.6 | 0.00 | 0.00 | 0.00 | 68 | 1010.8 |
| 20260506202116 | 60 | 23 | 0.0 | 1.7 | 0.00 | 0.00 | 0.00 | 67 | 1010.8 |
| 20260506201616 | 61 | 315 | 0.0 | 1.7 | 0.00 | 0.00 | 0.00 | 67 | 1010.7 |
| 20260506201116 | 61 | 315 | 0.9 | 1.7 | 0.00 | 0.00 | 0.00 | 67 | 1010.8 |
| 20260506200616 | 61 | 315 | 0.9 | 1.7 | 0.00 | 0.00 | 0.00 | 67 | 1010.8 |
| 20260506200116 | 61 | 180 | 0.9 | 4.3 | 0.00 | 0.00 | 0.00 | 67 | 1010.7 |
| 20260506195616 | 61 | 225 | 0.9 | 3.5 | 0.00 | 0.00 | 0.00 | 67 | 1010.8 |
| 20260506195116 | 61 | 225 | 1.7 | 5.2 | 0.00 | 0.00 | 0.00 | 67 | 1010.7 |
| 20260506194616 | 61 | 180 | 2.6 | 7.0 | 0.00 | 0.00 | 0.00 | 67 | 1010.8 |
| 20260506194116 | 61 | 180 | 1.7 | 4.3 | 0.00 | 0.00 | 0.00 | 67 | 1010.8 |
| 20260506193616 | 61 | 225 | 0.9 | 2.6 | 0.00 | 0.00 | 0.00 | 67 | 1010.8 |
| 20260506193116 | 61 | 180 | 0.9 | 2.6 | 0.00 | 0.00 | 0.00 | 67 | 1010.7 |
| 20260506192616 | 61 | 158 | 0.9 | 3.5 | 0.00 | 0.00 | 0.00 | 66 | 1010.6 |
| 20260506192116 | 61 | 68 | 0.9 | 1.7 | 0.00 | 0.00 | 0.00 | 66 | 1010.6 |
| 20260506191616 | 62 | 135 | 0.0 | 1.7 | 0.00 | 0.00 | 0.00 | 65 | 1010.5 |
| 20260506191116 | 62 | 270 | 0.9 | 2.6 | 0.00 | 0.00 | 0.00 | 65 | 1010.5 |
| 20260506190615 | 62 | 225 | 1.7 | 4.3 | 0.00 | 0.00 | 0.00 | 65 | 1010.3 |
| 20260506190115 | 62 | 180 | 1.7 | 6.1 | 0.00 | 0.00 | 0.00 | 65 | 1010.4 |
| 20260506185616 | 62 | 180 | 1.7 | 6.1 | 0.00 | 0.00 | 0.00 | 65 | 1010.3 |
| 20260506185115 | 62 | 225 | 1.7 | 4.3 | 0.00 | 0.00 | 0.00 | 64 | 1010.2 |
| 20260506184616 | 62 | 180 | 1.7 | 4.3 | 0.00 | 0.00 | 0.00 | 64 | 1010.0 |
| 20260506184117 | 63 | 180 | 1.7 | 4.3 | 0.00 | 0.00 | 0.00 | 64 | 1010.0 |
| 20260506183615 | 63 | 315 | 1.7 | 5.2 | 0.00 | 0.00 | 0.00 | 64 | 1010.1 |
| 20260506183116 | 63 | 225 | 1.7 | 5.2 | 0.00 | 0.00 | 0.00 | 64 | 1009.8 |
| 20260506182616 | 63 | 135 | 2.6 | 7.0 | 0.00 | 0.00 | 0.00 | 63 | 1009.6 |
| 20260506182116 | 63 | 135 | 2.6 | 7.8 | 0.00 | 0.00 | 0.00 | 63 | 1009.6 |
| 20260506181616 | 63 | 225 | 1.7 | 7.0 | 0.00 | 0.00 | 0.00 | 63 | 1009.5 |
| 20260506181116 | 63 | 180 | 0.9 | 3.5 | 0.00 | 0.00 | 0.00 | 63 | 1009.6 |
| 20260506180616 | 64 | 225 | 2.6 | 7.0 | 0.00 | 0.00 | 0.00 | 61 | 1009.7 |
| 20260506180116 | 64 | 225 | 2.6 | 7.0 | 0.00 | 0.00 | 0.00 | 61 | 1009.7 |
| 20260506175616 | 64 | 225 | 2.6 | 7.0 | 0.00 | 0.00 | 0.00 | 61 | 1009.7 |
| 20260506175115 | 64 | 90 | 0.9 | 2.6 | 0.00 | 0.00 | 0.00 | 60 | 1009.7 |
| 20260506174616 | 64 | 135 | 1.7 | 3.5 | 0.00 | 0.00 | 0.00 | 60 | 1009.7 |
| 20260506174115 | 64 | 225 | 1.7 | 4.3 | 0.00 | 0.00 | 0.00 | 60 | 1009.7 |
| 20260506173615 | 64 | 225 | 2.6 | 7.8 | 0.00 | 0.00 | 0.00 | 60 | 1009.6 |
| 20260506173115 | 64 | 135 | 1.7 | 4.3 | 0.00 | 0.00 | 0.00 | 60 | 1009.6 |
| 20260506172615 | 65 | 135 | 0.9 | 4.3 | 0.00 | 0.00 | 0.00 | 60 | 1009.4 |
| 20260506172116 | 65 | 135 | 2.6 | 7.8 | 0.00 | 0.00 | 0.00 | 60 | 1009.5 |
| 20260506171616 | 65 | 90 | 3.5 | 12.2 | 0.00 | 0.00 | 0.00 | 60 | 1009.5 |
| 20260506171116 | 65 | 180 | 1.7 | 9.6 | 0.00 | 0.00 | 0.00 | 60 | 1009.5 |
| 20260506170616 | 65 | 180 | 1.7 | 9.6 | 0.00 | 0.00 | 0.00 | 60 | 1009.5 |
| 20260506170115 | 65 | 225 | 4.3 | 12.2 | 0.00 | 0.00 | 0.00 | 59 | 1009.6 |
| 20260506165615 | 66 | 180 | 4.3 | 13.9 | 0.00 | 0.00 | 0.00 | 58 | 1009.6 |
| 20260506165116 | 67 | 135 | 4.3 | 13.0 | 0.00 | 0.00 | 0.00 | 57 | 1009.6 |
| 20260506164616 | 67 | 248 | 4.3 | 13.9 | 0.00 | 0.00 | 0.00 | 57 | 1009.6 |
| 20260506164116 | 66 | 180 | 2.6 | 8.7 | 0.00 | 0.00 | 0.00 | 58 | 1009.6 |
| 20260506163616 | 66 | 158 | 5.2 | 13.0 | 0.00 | 0.00 | 0.00 | 57 | 1009.7 |
| 20260506163116 | 67 | 135 | 4.3 | 13.0 | 0.00 | 0.00 | 0.00 | 57 | 1009.7 |
| 20260506162615 | 67 | 45 | 5.2 | 14.8 | 0.00 | 0.00 | 0.00 | 56 | 1009.8 |
| 20260506162116 | 67 | 135 | 4.3 | 10.4 | 0.00 | 0.00 | 0.00 | 56 | 1009.8 |
| 20260506161616 | 66 | 90 | 2.6 | 9.6 | 0.00 | 0.00 | 0.00 | 58 | 1009.9 |
| 20260506161116 | 66 | 270 | 3.5 | 11.3 | 0.00 | 0.00 | 0.00 | 57 | 1009.9 |
| 20260506160615 | 67 | 180 | 5.2 | 15.6 | 0.00 | 0.00 | 0.00 | 56 | 1009.9 |
| 20260506160115 | 67 | 180 | 5.2 | 15.6 | 0.00 | 0.00 | 0.00 | 56 | 1009.9 |
| 20260506155616 | 67 | 180 | 3.5 | 11.3 | 0.00 | 0.00 | 0.00 | 55 | 1009.9 |
| 20260506155116 | 67 | 225 | 2.6 | 10.4 | 0.00 | 0.00 | 0.00 | 55 | 1010.0 |
| 20260506154616 | 68 | 225 | 3.5 | 12.2 | 0.00 | 0.00 | 0.00 | 54 | 1010.0 |
| 20260506154116 | 68 | 180 | 4.3 | 11.3 | 0.00 | 0.00 | 0.00 | 55 | 1010.1 |
| 20260506153616 | 67 | 225 | 6.1 | 14.8 | 0.00 | 0.00 | 0.00 | 54 | 1010.2 |
| 20260506153115 | 68 | 180 | 7.8 | 22.6 | 0.00 | 0.00 | 0.00 | 54 | 1010.0 |
| 20260506152615 | 68 | 180 | 2.6 | 8.7 | 0.00 | 0.00 | 0.00 | 55 | 1010.0 |
| 20260506152115 | 68 | 135 | 3.5 | 9.6 | 0.00 | 0.00 | 0.00 | 54 | 1009.9 |
| 20260506151615 | 68 | 158 | 4.3 | 13.0 | 0.00 | 0.00 | 0.00 | 54 | 1010.1 |
| 20260506151116 | 68 | 158 | 2.6 | 9.6 | 0.00 | 0.00 | 0.00 | 54 | 1010.1 |
| 20260506150615 | 67 | 180 | 6.1 | 14.8 | 0.00 | 0.00 | 0.00 | 54 | 1010.2 |
| 20260506150116 | 68 | 135 | 4.3 | 11.3 | 0.00 | 0.00 | 0.00 | 54 | 1009.9 |
| 20260506145616 | 68 | 225 | 6.1 | 18.2 | 0.00 | 0.00 | 0.00 | 53 | 1010.0 |
| 20260506145115 | 68 | 270 | 3.5 | 8.7 | 0.00 | 0.00 | 0.00 | 54 | 1009.9 |
| 20260506144616 | 68 | 158 | 5.2 | 14.8 | 0.00 | 0.00 | 0.00 | 53 | 1010.0 |
| 20260506144115 | 68 | 180 | 4.3 | 11.3 | 0.00 | 0.00 | 0.00 | 53 | 1009.9 |
| 20260506143615 | 69 | 180 | 4.3 | 14.8 | 0.00 | 0.00 | 0.00 | 52 | 1010.1 |
| 20260506143116 | 70 | 180 | 7.0 | 20.9 | 0.00 | 0.00 | 0.00 | 50 | 1010.0 |
| 20260506142616 | 71 | 225 | 4.3 | 14.8 | 0.00 | 0.00 | 0.00 | 50 | 1009.9 |
| 20260506142115 | 71 | 225 | 2.6 | 7.0 | 0.00 | 0.00 | 0.00 | 51 | 1009.9 |
| 20260506141615 | 70 | 180 | 7.0 | 21.7 | 0.00 | 0.00 | 0.00 | 50 | 1009.9 |
| 20260506141115 | 71 | 135 | 7.8 | 23.5 | 0.00 | 0.00 | 0.00 | 50 | 1009.8 |
| 20260506140615 | 71 | 180 | 7.0 | 20.9 | 0.00 | 0.00 | 0.00 | 50 | 1009.9 |
| 20260506140115 | 71 | 135 | 5.2 | 14.8 | 0.00 | 0.00 | 0.00 | 49 | 1010.0 |
| 20260506135615 | 72 | 180 | 7.0 | 26.9 | 0.00 | 0.00 | 0.00 | 48 | 1010.0 |
| 20260506135115 | 71 | 180 | 5.2 | 14.8 | 0.00 | 0.00 | 0.00 | 50 | 1010.2 |
| 20260506134556 | 71 | 180 | 5.2 | 15.6 | 0.00 | 0.00 | 0.00 | 49 | 1010.1 |
| 20260506134057 | 71 | 90 | 3.5 | 13.0 | 0.00 | 0.00 | 0.00 | 47 | 1010.1 |
| 20260506133556 | 73 | 135 | 5.2 | 16.5 | 0.00 | 0.00 | 0.00 | 44 | 1009.9 |
| 20260506133055 | 72 | 180 | 6.1 | 15.6 | 0.00 | 0.00 | 0.00 | 46 | 1009.9 |
| 20260506132556 | 73 | 135 | 5.2 | 16.5 | 0.00 | 0.00 | 0.00 | 43 | 1010.0 |
| 20260506132056 | 73 | 180 | 5.2 | 17.4 | 0.00 | 0.00 | 0.00 | 43 | 1010.0 |
| 20260506131556 | 73 | 180 | 4.3 | 13.9 | 0.00 | 0.00 | 0.00 | 42 | 1010.1 |
| 20260506131056 | 73 | 45 | 4.3 | 11.3 | 0.00 | 0.00 | 0.00 | 42 | 1010.1 |
| 20260506130555 | 73 | 158 | 6.1 | 16.5 | 0.00 | 0.00 | 0.00 | 42 | 1010.2 |
| 20260506130056 | 73 | 180 | 3.5 | 11.3 | 0.00 | 0.00 | 0.00 | 41 | 1010.2 |
| 20260506125556 | 73 | 180 | 3.5 | 11.3 | 0.00 | 0.00 | 0.00 | 41 | 1010.2 |
| 20260506125056 | 73 | 270 | 6.1 | 20.0 | 0.00 | 0.00 | 0.00 | 41 | 1010.3 |
| 20260506124556 | 74 | 135 | 6.1 | 17.4 | 0.00 | 0.00 | 0.00 | 41 | 1010.0 |
| 20260506124055 | 74 | 135 | 6.1 | 18.2 | 0.00 | 0.00 | 0.00 | 40 | 1010.2 |
| 20260506123556 | 74 | 135 | 6.1 | 18.2 | 0.00 | 0.00 | 0.00 | 40 | 1010.2 |
| 20260506123055 | 75 | 180 | 5.2 | 15.6 | 0.00 | 0.00 | 0.00 | 40 | 1010.3 |
| 20260506122556 | 74 | 180 | 2.6 | 9.6 | 0.00 | 0.00 | 0.00 | 40 | 1010.5 |
| 20260506122056 | 74 | 180 | 3.5 | 11.3 | 0.00 | 0.00 | 0.00 | 41 | 1010.6 |
| 20260506121557 | 74 | 180 | 3.5 | 11.3 | 0.00 | 0.00 | 0.00 | 41 | 1010.6 |
| 20260506121056 | 74 | 180 | 4.3 | 13.0 | 0.00 | 0.00 | 0.00 | 41 | 1010.5 |
| 20260506120557 | 72 | 68 | 2.6 | 7.8 | 0.00 | 0.00 | 0.00 | 44 | 1010.5 |
| 20260506120055 | 74 | 180 | 4.3 | 12.2 | 0.00 | 0.00 | 0.00 | 41 | 1010.4 |
| 20260506115556 | 74 | 180 | 4.3 | 12.2 | 0.00 | 0.00 | 0.00 | 41 | 1010.4 |
| 20260506115056 | 74 | 180 | 4.3 | 12.2 | 0.00 | 0.00 | 0.00 | 40 | 1010.5 |
| 20260506114555 | 74 | 135 | 2.6 | 7.0 | 0.00 | 0.00 | 0.00 | 41 | 1010.5 |
| 20260506114055 | 72 | 135 | 2.6 | 7.8 | 0.00 | 0.00 | 0.00 | 46 | 1010.7 |
| 20260506113556 | 72 | 135 | 2.6 | 7.8 | 0.00 | 0.00 | 0.00 | 46 | 1010.7 |
| 20260506113055 | 71 | 180 | 4.3 | 13.0 | 0.00 | 0.00 | 0.00 | 47 | 1010.8 |
| 20260506112555 | 71 | 180 | 5.2 | 13.0 | 0.00 | 0.00 | 0.00 | 46 | 1010.9 |
| 20260506112056 | 72 | 135 | 3.5 | 9.6 | 0.00 | 0.00 | 0.00 | 45 | 1011.0 |
| 20260506111556 | 72 | 135 | 3.5 | 9.6 | 0.00 | 0.00 | 0.00 | 45 | 1011.0 |
| 20260506111056 | 71 | 225 | 3.5 | 11.3 | 0.00 | 0.00 | 0.00 | 45 | 1010.9 |
| 20260506110555 | 71 | 135 | 2.6 | 9.6 | 0.00 | 0.00 | 0.00 | 44 | 1011.2 |
| 20260506110055 | 70 | 135 | 3.5 | 10.4 | 0.00 | 0.00 | 0.00 | 49 | 1011.4 |
| 20260506105555 | 70 | 135 | 3.5 | 10.4 | 0.00 | 0.00 | 0.00 | 49 | 1011.4 |
| 20260506105056 | 70 | 180 | 1.7 | 4.3 | 0.00 | 0.00 | 0.00 | 49 | 1011.4 |
| 20260506104555 | 70 | 180 | 3.5 | 7.8 | 0.00 | 0.00 | 0.00 | 49 | 1011.5 |
| 20260506104056 | 70 | 135 | 2.6 | 8.7 | 0.00 | 0.00 | 0.00 | 49 | 1011.4 |
| 20260506103556 | 70 | 135 | 2.6 | 8.7 | 0.00 | 0.00 | 0.00 | 49 | 1011.4 |
| 20260506103055 | 70 | 90 | 3.5 | 10.4 | 0.00 | 0.00 | 0.00 | 49 | 1011.6 |
| 20260506102555 | 70 | 180 | 3.5 | 9.6 | 0.00 | 0.00 | 0.00 | 49 | 1011.5 |
| 20260506102055 | 70 | 225 | 1.7 | 7.0 | 0.00 | 0.00 | 0.00 | 50 | 1011.6 |
| 20260506101555 | 70 | 225 | 1.7 | 7.0 | 0.00 | 0.00 | 0.00 | 50 | 1011.6 |
| 20260506101055 | 69 | 180 | 3.5 | 10.4 | 0.00 | 0.00 | 0.00 | 48 | 1011.7 |
| 20260506100555 | 69 | 135 | 1.7 | 7.0 | 0.00 | 0.00 | 0.00 | 46 | 1011.6 |
| 20260506100055 | 71 | 180 | 3.5 | 8.7 | 0.00 | 0.00 | 0.00 | 44 | 1011.6 |
| 20260506095555 | 71 | 180 | 3.5 | 8.7 | 0.00 | 0.00 | 0.00 | 44 | 1011.6 |
| 20260506095055 | 71 | 225 | 5.2 | 13.9 | 0.00 | 0.00 | 0.00 | 43 | 1011.5 |
| 20260506094555 | 72 | 135 | 3.5 | 9.6 | 0.00 | 0.00 | 0.00 | 42 | 1011.4 |
| 20260506094055 | 74 | 180 | 3.5 | 9.6 | 0.00 | 0.00 | 0.00 | 37 | 1011.5 |
| 20260506093556 | 74 | 180 | 3.5 | 9.6 | 0.00 | 0.00 | 0.00 | 37 | 1011.5 |
| 20260506093055 | 74 | 180 | 4.3 | 13.0 | 0.00 | 0.00 | 0.00 | 36 | 1011.4 |
| 20260506092555 | 74 | 135 | 4.3 | 13.0 | 0.00 | 0.00 | 0.00 | 35 | 1011.2 |
| 20260506092055 | 74 | 180 | 3.5 | 9.6 | 0.00 | 0.00 | 0.00 | 35 | 1011.1 |
| 20260506091555 | 74 | 180 | 3.5 | 9.6 | 0.00 | 0.00 | 0.00 | 35 | 1011.1 |
| 20260506091055 | 75 | 158 | 4.3 | 12.2 | 0.00 | 0.00 | 0.00 | 33 | 1011.1 |
| 20260506090555 | 74 | 360 | 0.9 | 3.5 | 0.00 | 0.00 | 0.00 | 34 | 1011.2 |
| 20260506090055 | 74 | 158 | 3.5 | 10.4 | 0.00 | 0.00 | 0.00 | 35 | 1011.4 |
| 20260506085555 | 74 | 158 | 3.5 | 10.4 | 0.00 | 0.00 | 0.00 | 35 | 1011.4 |
| 20260506085056 | 75 | 180 | 2.6 | 8.7 | 0.00 | 0.00 | 0.00 | 35 | 1011.2 |
| 20260506084556 | 74 | 180 | 4.3 | 11.3 | 0.00 | 0.00 | 0.00 | 36 | 1011.3 |
| 20260506084056 | 74 | 135 | 2.6 | 7.0 | 0.00 | 0.00 | 0.00 | 35 | 1011.3 |
| 20260506083555 | 74 | 135 | 2.6 | 7.0 | 0.00 | 0.00 | 0.00 | 35 | 1011.3 |
| 20260506083055 | 73 | 135 | 1.7 | 4.3 | 0.00 | 0.00 | 0.00 | 36 | 1011.3 |
| 20260506082555 | 74 | 270 | 3.5 | 10.4 | 0.00 | 0.00 | 0.00 | 40 | 1011.3 |
| 20260506082055 | 74 | 90 | 1.7 | 3.5 | 0.00 | 0.00 | 0.00 | 40 | 1011.4 |
| 20260506081556 | 74 | 90 | 1.7 | 3.5 | 0.00 | 0.00 | 0.00 | 40 | 1011.4 |
| 20260506081055 | 74 | 180 | 1.7 | 5.2 | 0.00 | 0.00 | 0.00 | 40 | 1011.4 |
| 20260506080555 | 73 | 180 | 0.9 | 3.5 | 0.00 | 0.00 | 0.00 | 41 | 1011.4 |
| 20260506073055 | 71 | 113 | 0.9 | 2.6 | 0.00 | 0.00 | 0.00 | 48 | 1011.6 |
| 20260506072555 | 71 | 90 | 0.9 | 3.5 | 0.00 | 0.00 | 0.00 | 48 | 1011.4 |
| 20260506072055 | 70 | 180 | 1.7 | 3.5 | 0.00 | 0.00 | 0.00 | 48 | 1011.4 |
| 20260506071555 | 70 | 180 | 1.7 | 3.5 | 0.00 | 0.00 | 0.00 | 48 | 1011.4 |
| 20260506071056 | 70 | 135 | 0.9 | 3.5 | 0.00 | 0.00 | 0.00 | 49 | 1011.4 |
| 20260506070555 | 69 | 45 | 0.9 | 2.6 | 0.00 | 0.00 | 0.00 | 50 | 1011.5 |
| 20260506062055 | 64 | 360 | 0.9 | 1.7 | 0.00 | 0.00 | 0.00 | 53 | 1011.7 |
| 20260506061555 | 64 | 360 | 0.9 | 1.7 | 0.00 | 0.00 | 0.00 | 53 | 1011.7 |
| 20260506061055 | 62 | 23 | 1.7 | 5.2 | 0.00 | 0.00 | 0.00 | 57 | 1011.7 |
| 20260506060555 | 62 | 360 | 1.7 | 4.3 | 0.00 | 0.00 | 0.00 | 58 | 1011.5 |
| 20260506051055 | 65 | 360 | 0.0 | 0.9 | 0.00 | 0.00 | 0.00 | 61 | 1011.5 |
| 20260506050555 | 63 | 135 | 0.0 | 0.9 | 0.00 | 0.00 | 0.00 | 67 | 1011.5 |
| 20260506045055 | 60 | 270 | 0.0 | 1.7 | 0.00 | 0.00 | 0.00 | 79 | 1011.5 |
| 20260506044555 | 58 | 360 | 0.0 | 0.0 | 0.00 | 0.00 | 0.00 | 84 | 1011.5 |
| 20260506044055 | 55 | 270 | 0.0 | 0.0 | 0.00 | 0.00 | 0.00 | 88 | 1011.4 |
| 20260506043555 | 55 | 270 | 0.0 | 0.0 | 0.00 | 0.00 | 0.00 | 88 | 1011.4 |
| 20260506043055 | 52 | 45 | 0.0 | 0.0 | 0.00 | 0.00 | 0.00 | 91 | 1011.3 |
| 20260506042554 | 50 | 270 | 0.0 | 0.0 | 0.00 | 0.00 | 0.00 | 91 | 1011.4 |
| 20260506042054 | 48 | 270 | 0.0 | 0.0 | 0.00 | 0.00 | 0.00 | 90 | 1011.2 |
| 20260506041555 | 47 | 225 | 0.9 | 1.7 | 0.00 | 0.00 | 0.00 | 90 | 1011.2 |
| 20260506041054 | 47 | 360 | 0.0 | 0.9 | 0.00 | 0.00 | 0.00 | 90 | 1011.4 |
| 20260506040555 | 47 | 360 | 0.0 | 0.9 | 0.00 | 0.00 | 0.00 | 90 | 1011.4 |
| 20260506040055 | 48 | 225 | 0.9 | 2.6 | 0.00 | 0.00 | 0.00 | 90 | 1011.4 |
| 20260506035555 | 48 | 225 | 0.9 | 2.6 | 0.00 | 0.00 | 0.00 | 90 | 1011.4 |
| 20260506035055 | 47 | 270 | 0.0 | 1.7 | 0.00 | 0.00 | 0.00 | 90 | 1011.2 |
| 20260506034554 | 47 | 225 | 0.9 | 1.7 | 0.00 | 0.00 | 0.00 | 90 | 1011.1 |
| 20260506034055 | 47 | 225 | 0.0 | 0.0 | 0.00 | 0.00 | 0.00 | 90 | 1011.1 |
| 20260506033555 | 47 | 225 | 0.0 | 0.0 | 0.00 | 0.00 | 0.00 | 90 | 1011.1 |
| 20260506033054 | 47 | 180 | 0.9 | 1.7 | 0.00 | 0.00 | 0.00 | 90 | 1011.2 |
| 20260506032554 | 48 | 180 | 0.0 | 0.0 | 0.00 | 0.00 | 0.00 | 90 | 1011.0 |
| 20260506032055 | 48 | 225 | 0.0 | 0.0 | 0.00 | 0.00 | 0.00 | 90 | 1011.2 |
| 20260506031554 | 48 | 225 | 0.0 | 0.0 | 0.00 | 0.00 | 0.00 | 90 | 1011.2 |
| 20260506031055 | 48 | 315 | 0.0 | 1.7 | 0.00 | 0.00 | 0.00 | 90 | 1011.2 |
| 20260506030554 | 48 | 315 | 0.0 | 1.7 | 0.00 | 0.00 | 0.00 | 90 | 1011.2 |
| 20260506030055 | 47 | 315 | 0.0 | 0.9 | 0.00 | 0.00 | 0.00 | 88 | 1011.2 |
| 20260506025555 | 47 | 315 | 0.0 | 0.9 | 0.00 | 0.00 | 0.00 | 88 | 1011.2 |
| 20260506025055 | 47 | 360 | 0.9 | 1.7 | 0.00 | 0.00 | 0.00 | 88 | 1011.1 |
| 20260506024554 | 48 | 180 | 0.0 | 0.0 | 0.00 | 0.00 | 0.00 | 88 | 1010.9 |
| 20260506024054 | 48 | 180 | 0.0 | 0.0 | 0.00 | 0.00 | 0.00 | 88 | 1011.0 |
| 20260506023555 | 48 | 180 | 0.0 | 0.0 | 0.00 | 0.00 | 0.00 | 88 | 1011.0 |
| 20260506023054 | 48 | 315 | 0.0 | 0.0 | 0.00 | 0.00 | 0.00 | 88 | 1011.1 |
| 20260506022554 | 48 | 360 | 0.9 | 1.7 | 0.00 | 0.00 | 0.00 | 87 | 1010.8 |
| 20260506022054 | 48 | 180 | 0.0 | 0.0 | 0.00 | 0.00 | 0.00 | 87 | 1010.9 |
| 20260506021554 | 48 | 180 | 0.0 | 0.0 | 0.00 | 0.00 | 0.00 | 87 | 1010.9 |
| 20260506021054 | 49 | 180 | 0.0 | 0.9 | 0.00 | 0.00 | 0.00 | 87 | 1010.7 |
| 20260506020554 | 49 | 180 | 0.0 | 0.9 | 0.00 | 0.00 | 0.00 | 87 | 1010.7 |
| 20260506020054 | 49 | 225 | 0.0 | 0.0 | 0.00 | 0.00 | 0.00 | 87 | 1010.8 |
| 20260506015554 | 49 | 225 | 0.0 | 0.0 | 0.00 | 0.00 | 0.00 | 87 | 1010.8 |
| 20260506015054 | 49 | 225 | 0.0 | 0.9 | 0.00 | 0.00 | 0.00 | 86 | 1010.8 |
| 20260506014554 | 49 | 45 | 0.9 | 1.7 | 0.00 | 0.00 | 0.00 | 86 | 1010.7 |
| 20260506014055 | 49 | 360 | 0.9 | 2.6 | 0.00 | 0.00 | 0.00 | 86 | 1010.6 |
| 20260506013554 | 49 | 360 | 0.9 | 2.6 | 0.00 | 0.00 | 0.00 | 86 | 1010.6 |
| 20260506013054 | 50 | 225 | 0.9 | 1.7 | 0.00 | 0.00 | 0.00 | 86 | 1010.6 |
| 20260506012554 | 50 | 225 | 0.9 | 1.7 | 0.00 | 0.00 | 0.00 | 86 | 1010.6 |
| 20260506012054 | 49 | 270 | 0.0 | 0.9 | 0.00 | 0.00 | 0.00 | 85 | 1010.3 |
| 20260506011554 | 49 | 270 | 0.0 | 0.9 | 0.00 | 0.00 | 0.00 | 85 | 1010.3 |
| 20260506011054 | 50 | 225 | 0.0 | 0.0 | 0.00 | 0.00 | 0.00 | 85 | 1010.5 |
| 20260506010555 | 49 | 225 | 0.0 | 0.9 | 0.00 | 0.00 | 0.00 | 84 | 1010.4 |
| 20260506010054 | 50 | 360 | 0.0 | 1.7 | 0.00 | 0.00 | 0.00 | 84 | 1010.4 |
| 20260506005554 | 50 | 360 | 0.0 | 1.7 | 0.00 | 0.00 | 0.00 | 84 | 1010.4 |
| 20260506005054 | 50 | 225 | 0.0 | 1.7 | 0.00 | 0.00 | 0.00 | 84 | 1010.4 |
| 20260506004555 | 50 | 225 | 0.0 | 1.7 | 0.00 | 0.00 | 0.00 | 84 | 1010.4 |
| 20260506004054 | 50 | 45 | 0.9 | 1.7 | 0.00 | 0.00 | 0.00 | 84 | 1010.4 |
| 20260506003554 | 50 | 45 | 0.9 | 1.7 | 0.00 | 0.00 | 0.00 | 84 | 1010.4 |
| 20260506003055 | 50 | 225 | 0.9 | 1.7 | 0.00 | 0.00 | 0.00 | 83 | 1010.2 |
| 20260506002554 | 50 | 225 | 0.9 | 1.7 | 0.00 | 0.00 | 0.00 | 83 | 1010.2 |
| 20260506002055 | 51 | 225 | 0.0 | 1.7 | 0.00 | 0.00 | 0.00 | 83 | 1010.4 |
| 20260506001554 | 51 | 225 | 0.0 | 1.7 | 0.00 | 0.00 | 0.00 | 83 | 1010.4 |
| 20260506001054 | 51 | 270 | 0.9 | 1.7 | 0.00 | 0.00 | 0.00 | 83 | 1010.4 |
| 20260506000554 | 51 | 225 | 0.9 | 1.7 | 0.00 | 0.00 | 0.00 | 82 | 1010.4 |
| 20260506000054 | 51 | 203 | 0.9 | 1.7 | 0.00 | 0.00 | 0.00 | 81 | 1010.4 |
| 20260505235554 | 51 | 203 | 0.9 | 1.7 | 0.00 | 0.00 | 0.00 | 81 | 1010.4 |
| 20260505235054 | 51 | 315 | 0.0 | 0.0 | 0.00 | 0.00 | 0.00 | 81 | 1010.3 |
| 20260505234554 | 52 | 180 | 0.0 | 1.7 | 0.00 | 0.00 | 0.00 | 82 | 1010.5 |
| 20260505234054 | 52 | 270 | 0.9 | 1.7 | 0.00 | 0.00 | 0.00 | 81 | 1010.5 |